Location: Gull Harbor
(47.1000°N, 122.9000°W)
Time: 15:47:09
(UTC-07:00)

Envisat - Visible Passes

Search period start: 28 June 2017 00:00
Search period end: 08 July 2017 00:00
Orbit: 764 x 766 km, 98.2° (Epoch: 27 June)

Date Brightness Start Highest point End Pass type
(mag) Time Alt. Az. Time Alt. Az. Time Alt. Az.
28 Jun 5.4 22:20:06 10° SW 22:23:45 20° W 22:27:26 10° NW visible
30 Jun 5.7 22:48:06 10° WSW 22:49:44 11° W 22:51:21 10° WNW visible
01 Jul 5.1 22:08:28 10° SSW 22:12:34 24° W 22:16:41 10° NW visible
03 Jul 5.6 22:35:44 10° WSW 22:38:29 14° W 22:41:15 10° NW visible
04 Jul 4.8 21:56:57 10° SSW 22:01:23 30° W 22:05:50 10° NNW visible
06 Jul 5.5 22:23:50 10° SW 22:27:16 18° W 22:30:43 10° NW visible
07 Jul 4.4 21:45:32 10° SSW 21:50:13 37° W 21:54:56 10° NNW visible
